Terug naar catalogus

STARLINK-11717

ActiefCommunicatieVLEO
NORAD 64126·PAYLOAD·🇺🇸 United States

Gelanceerd May 24, 2025 vanaf Cape Canaveral Space Force Station

Loading…

Volgende Passages (komende 24 uur)

TLE

VersSource: CelesTrak SupGP

Epoch: Sep 15, 2026, 03:45 UTC

1 64126C 25111D   26258.15673611 -.00015689  00000+0 -12177-3 0  2581
2 64126  43.0002 271.9728 0001386 259.9952 166.6348 15.70864895    13

Volg STARLINK-11717 in realtime met AllMySat

Download on the App Store